Regional Weather Roundup
Issued by NWS Spokane, WA

Home | Current Version | Previous Version | Text Only | Print | Product List | Glossary On
Versions: 1 2 3 4 5 6 7 8 9 10 11 12 13 14 15 16 17 18 19 20 21 22 23 24 25 26 27 28 29 30 31 32 33 34 35 36 37 38 39 40 41 42 43 44 45 46 47 48 49 50
000
NZUS01 KOTX 282300
RWROTX
EASTERN WASHINGTON/NORTHERN IDAHO ROUNDUP
NATIONAL WEATHER SERVICE, SPOKANE WA
400 PM PDT FRI AUG 28 2015

Note: "fair" indicated few or no clouds below 12,000 feet with no
significant weather and/or obstructions to visibility.

...NORTHEAST WASHINGTON AND NORTHERN IDAHO PANHANDLE...

CITY           SKY/WX    TMP DP  RH WIND       PRES   REMARKS
SPOKANE INTL   CLOUDY    80  44  27 S10       29.93F
SPOKANE DOWNTO CLOUDY    82  45  27 SW12      29.92F
COEUR D ALENE  CLOUDY    79  46  31 SE6       29.94F
DEER PARK      CLOUDY    79  46  31 S12       29.93S
SANDPOINT      CLOUDY    73  46  38 CALM      29.95F

...SOUTHEAST WASHINGTON AND SOUTHERN IDAHO PANHANDLE...

CITY           SKY/WX    TMP DP  RH WIND       PRES   REMARKS
WALLA WALLA    CLOUDY    87  45  23 N9        29.85F
PULLMAN/MOSCOW CLOUDY    80  44  27 E8        29.98F
LOWELL           N/A     71  57  61 N3        29.97S

...COLUMBIA BASIN...

CITY           SKY/WX    TMP DP  RH WIND       PRES   REMARKS
EPHRATA        CLOUDY    81  50  33 S10       29.87F
MOSES LAKE     CLOUDY    81  50  33 VRB6      29.88F
TRI CITIES     CLOUDY    87  47  24 SE3       29.83F
HERMISTON      CLOUDY    88  48  25 N8        29.81F
PENDLETON      CLOUDY    88  43  20 N13       29.83F

...EAST SLOPES CASCADES...

CITY           SKY/WX    TMP DP  RH WIND       PRES   REMARKS
THE DALLES     CLOUDY    84  53  34 NW10      29.80F
YAKIMA         CLOUDY    82  54  37 VRB5      29.85F
ELLENSBURG     CLOUDY    79  51  37 E7        29.88F
WENATCHEE      PTSUNNY   83  49  30 W6        29.84F
OMAK           CLOUDY    80  46  30 SW10      29.84S

...SOUTHERN BRITISH COLUMBIA...

CITY           SKY/WX    TMP DP  RH WIND       PRES   REMARKS

...WESTERN MONTANA...

CITY           SKY/WX    TMP DP  RH WIND       PRES   REMARKS
MISSOULA       CLOUDY    75  45  34 CALM      30.00R HAZE

...NEIGHBORING CITIES...

CITY           SKY/WX    TMP DP  RH WIND       PRES   REMARKS
SEATTLE        CLOUDY    73  56  54 NW5       29.91F



USA.gov is the U.S. government's official web portal to all federal, state and local government web resources and services.